Camden, SC

6:35 AM EST on December 13, 2017 (GMT -0500)
Woodward

Weather History for KCDN - February, 2012

Change the Weather History Date:

Sunday, February 12, 2012

  Actual Average (KSSC) Record (KSSC)
Temperature  
Mean Temperature 34 °F -  
Max Temperature 44 °F 57 °F 77 °F (2017)
Min Temperature 23 °F 35 °F 22 °F (2012)
Degree Days  
Heating Degree Days 32    
Moisture  
Dew Point 8 °F    
Average Humidity 36    
Maximum Humidity 54    
Minimum Humidity 23    
Precipitation  
Precipitation 0.00 in - - ()
Sea Level Pressure  
Sea Level Pressure 30.26 in    
Wind  
Wind Speed 10 mph (WNW)    
Max Wind Speed 15 mph    
Max Gust Speed 25 mph    
Visibility 10 miles    
Events      
Averages and records for this station are not official NWS values.
T = Trace of Precipitation, MM = Missing Value Source: NWS Daily Summary

Daily Weather History Graph

Daily Weather History Graph

Search for Another Location

Airport or City:

Trip Planner

Search our weather history database for the weather conditions in past years. The results will help you decide how hot, cold, wet, or windy it might be!

Date:

Astronomy

Feb. 12, 2012 Rise Set
Actual Time 7:10 AM EST 6:02 PM EST
Civil Twilight 6:44 AM EST 6:28 PM EST
Nautical Twilight 6:15 AM EST 6:57 PM EST
Astronomical Twilight 5:46 AM EST 7:27 PM EST
Moon 11:39 PM EST (2/12) 9:46 AM EST (2/12)
Length of Visible Light 11h 43m
Length of Day
10h 51m
Waning Gibbous, 72% of the Moon is Illuminated
Feb 12
Waning Gibbous
Feb 14
Last Quarter
Feb 21
New
Feb 29
First Quarter
Mar 8
Full

Hourly Weather History & Observations

Time (EST) Temp. Windchill Dew Point Humidity Pressure Visibility Wind Dir Wind Speed Gust Speed Precip Events Conditions
12:15 AM 28.4 °F 17.5 °F 5.0 °F 37% 30.18 in 10.0 mi WNW 13.8 mph 25.3 mph 0.00 in   Clear
12:35 AM 28.4 °F 18.5 °F 5.0 °F 37% 30.19 in 10.0 mi NW 11.5 mph 17.3 mph 0.00 in   Clear
12:55 AM 28.4 °F 17.5 °F 5.0 °F 37% 30.19 in 10.0 mi WNW 13.8 mph 18.4 mph 0.00 in   Clear
1:15 AM 28.4 °F 18.0 °F 5.0 °F 37% 30.19 in 10.0 mi WNW 12.7 mph 18.4 mph 0.00 in   Clear
1:35 AM 28.4 °F 18.5 °F 5.0 °F 37% 30.20 in 10.0 mi WNW 11.5 mph - 0.00 in   Clear
1:55 AM 28.4 °F 18.5 °F 5.0 °F 37% 30.21 in 10.0 mi WNW 11.5 mph - 0.00 in   Clear
2:15 AM 28.4 °F 19.7 °F 5.0 °F 37% 30.21 in 10.0 mi WNW 9.2 mph 17.3 mph 0.00 in   Clear
2:35 AM 26.6 °F 19.1 °F 5.0 °F 40% 30.21 in 10.0 mi West 6.9 mph - 0.00 in   Clear
2:55 AM 26.6 °F 18.2 °F 6.8 °F 43% 30.22 in 10.0 mi West 8.1 mph - 0.00 in   Clear
3:15 AM 26.6 °F 18.2 °F 6.8 °F 43% 30.22 in 10.0 mi West 8.1 mph - 0.00 in   Clear
3:35 AM 26.6 °F 18.2 °F 6.8 °F 43% 30.23 in 10.0 mi West 8.1 mph - 0.00 in   Clear
3:55 AM 24.8 °F 17.9 °F 6.8 °F 46% 30.23 in 10.0 mi WNW 5.8 mph - 0.00 in   Clear
4:15 AM 24.8 °F 16.9 °F 6.8 °F 46% 30.24 in 10.0 mi WNW 6.9 mph - 0.00 in   Clear
4:35 AM 24.8 °F 17.9 °F 8.6 °F 50% 30.24 in 10.0 mi WNW 5.8 mph - 0.00 in   Clear
4:55 AM 23.0 °F 15.8 °F 8.6 °F 54% 30.24 in 10.0 mi WNW 5.8 mph - 0.00 in   Clear
5:15 AM 24.8 °F 14.6 °F 6.8 °F 46% 30.24 in 10.0 mi NW 10.4 mph 18.4 mph 0.00 in   Clear
5:35 AM 24.8 °F 15.3 °F 6.8 °F 46% 30.24 in 10.0 mi NW 9.2 mph - 0.00 in   Clear
5:55 AM 24.8 °F 16.9 °F 6.8 °F 46% 30.25 in 10.0 mi NW 6.9 mph - 0.00 in   Clear
6:15 AM 23.0 °F 14.7 °F 6.8 °F 50% 30.25 in 10.0 mi WNW 6.9 mph - 0.00 in   Clear
6:35 AM 23.0 °F 15.8 °F 6.8 °F 50% 30.26 in 10.0 mi NW 5.8 mph - 0.00 in   Clear
6:55 AM 23.0 °F 15.8 °F 6.8 °F 50% 30.26 in 10.0 mi NNW 5.8 mph - 0.00 in   Clear
7:15 AM 23.0 °F 14.7 °F 6.8 °F 50% 30.28 in 10.0 mi NW 6.9 mph - 0.00 in   Clear
7:35 AM 23.0 °F 15.8 °F 6.8 °F 50% 30.29 in 10.0 mi WNW 5.8 mph - 0.00 in   Clear
7:55 AM 24.8 °F 16.9 °F 6.8 °F 46% 30.30 in 10.0 mi NW 6.9 mph - 0.00 in   Clear
8:15 AM 26.6 °F 19.1 °F 6.8 °F 43% 30.30 in 10.0 mi NNW 6.9 mph - 0.00 in   Clear
8:35 AM 26.6 °F 18.2 °F 6.8 °F 43% 30.32 in 10.0 mi NNW 8.1 mph - 0.00 in   Clear
8:55 AM 28.4 °F 21.2 °F 6.8 °F 40% 30.33 in 10.0 mi NW 6.9 mph - 0.00 in   Clear
9:15 AM 28.4 °F 18.0 °F 6.8 °F 40% 30.33 in 10.0 mi WNW 12.7 mph - 0.00 in   Clear
9:35 AM 30.2 °F 21.3 °F 6.8 °F 37% 30.33 in 10.0 mi NW 10.4 mph - 0.00 in   Clear
9:55 AM 32.0 °F 22.1 °F 6.8 °F 35% 30.33 in 10.0 mi NW 13.8 mph 18.4 mph 0.00 in   Clear
10:15 AM 32.0 °F 22.5 °F 5.0 °F 32% 30.33 in 10.0 mi NW 12.7 mph 17.3 mph 0.00 in   Clear
10:35 AM 32.0 °F 23.0 °F 6.8 °F 35% 30.33 in 10.0 mi NNW 11.5 mph - 0.00 in   Clear
10:55 AM 33.8 °F 24.8 °F 6.8 °F 32% 30.33 in 10.0 mi WNW 12.7 mph - 0.00 in   Clear
11:15 AM 33.8 °F 24.8 °F 6.8 °F 32% 30.32 in 10.0 mi WNW 12.7 mph - 0.00 in   Clear
11:35 AM 35.6 °F 28.0 °F 5.0 °F 28% 30.31 in 10.0 mi NW 10.4 mph - 0.00 in   Clear
11:55 AM 35.6 °F 27.5 °F 6.8 °F 30% 30.30 in 10.0 mi NW 11.5 mph 18.4 mph 0.00 in   Clear
12:15 PM 37.4 °F 30.3 °F 5.0 °F 26% 30.29 in 10.0 mi NW 10.4 mph 16.1 mph 0.00 in   Clear
12:35 PM 37.4 °F 30.8 °F 6.8 °F 28% 30.28 in 10.0 mi NNW 9.2 mph - 0.00 in   Clear
12:55 PM 39.2 °F 32.5 °F 6.8 °F 26% 30.27 in 10.0 mi NW 10.4 mph 17.3 mph 0.00 in   Clear
1:15 PM 39.2 °F 32.0 °F 8.6 °F 28% 30.25 in 10.0 mi West 11.5 mph - 0.00 in   Clear
1:35 PM 41.0 °F 34.7 °F 8.6 °F 26% 30.25 in 10.0 mi WNW 10.4 mph 16.1 mph 0.00 in   Clear
1:55 PM 42.8 °F 37.5 °F 8.6 °F 25% 30.24 in 10.0 mi WNW 9.2 mph - 0.00 in   Clear
2:15 PM 42.8 °F 35.8 °F 8.6 °F 25% 30.24 in 10.0 mi West 13.8 mph 17.3 mph 0.00 in   Clear
2:35 PM 42.8 °F 36.6 °F 8.6 °F 25% 30.23 in 10.0 mi WNW 11.5 mph - 0.00 in   Clear
2:55 PM 44.6 °F 40.2 °F 8.6 °F 23% 30.23 in 10.0 mi WNW 8.1 mph - 0.00 in   Clear
3:15 PM 44.6 °F 37.8 °F 8.6 °F 23% 30.22 in 10.0 mi West 15.0 mph 19.6 mph 0.00 in   Clear
3:35 PM 44.6 °F 38.4 °F 8.6 °F 23% 30.22 in 10.0 mi West 12.7 mph 21.9 mph 0.00 in   Clear
3:55 PM 44.6 °F 38.1 °F 10.4 °F 25% 30.22 in 10.0 mi WNW 13.8 mph 18.4 mph 0.00 in   Clear
4:15 PM 44.6 °F 39.2 °F 8.6 °F 23% 30.22 in 10.0 mi West 10.4 mph 16.1 mph 0.00 in   Clear
4:35 PM 44.6 °F 38.1 °F 8.6 °F 23% 30.22 in 10.0 mi NW 13.8 mph 18.4 mph 0.00 in   Clear
4:55 PM 44.6 °F 38.4 °F 8.6 °F 23% 30.22 in 10.0 mi WNW 12.7 mph - 0.00 in   Clear
5:15 PM 44.6 °F 38.8 °F 8.6 °F 23% 30.22 in 10.0 mi WNW 11.5 mph 16.1 mph 0.00 in   Clear
5:35 PM 42.8 °F 38.6 °F 8.6 °F 25% 30.23 in 10.0 mi WNW 6.9 mph - 0.00 in   Clear
5:55 PM 42.8 °F 38.0 °F 10.4 °F 27% 30.24 in 10.0 mi WNW 8.1 mph - 0.00 in   Clear
6:15 PM 39.2 °F 35.9 °F 10.4 °F 31% 30.24 in 10.0 mi West 4.6 mph - 0.00 in   Clear
6:35 PM 39.2 °F 35.9 °F 10.4 °F 31% 30.24 in 10.0 mi WSW 4.6 mph - 0.00 in   Clear
6:55 PM 37.4 °F 33.8 °F 12.2 °F 36% 30.25 in 10.0 mi West 4.6 mph - 0.00 in   Clear
7:15 PM 37.4 °F 34.9 °F 10.4 °F 33% 30.26 in 10.0 mi SW 3.5 mph - 0.00 in   Clear
7:35 PM 37.4 °F 32.1 °F 12.2 °F 36% 30.26 in 10.0 mi West 6.9 mph - 0.00 in   Clear
7:55 PM 37.4 °F 34.9 °F 10.4 °F 33% 30.26 in 10.0 mi West 3.5 mph - 0.00 in   Clear
8:15 PM 35.6 °F 32.8 °F 10.4 °F 35% 30.26 in 10.0 mi WSW 3.5 mph - 0.00 in   Clear
8:35 PM 35.6 °F 32.8 °F 12.2 °F 38% 30.26 in 10.0 mi WSW 3.5 mph - 0.00 in   Clear
8:55 PM 35.6 °F - 10.4 °F 35% 30.26 in 10.0 mi Calm Calm - 0.00 in   Clear
9:15 PM 33.8 °F 30.8 °F 12.2 °F 41% 30.26 in 10.0 mi SW 3.5 mph - 0.00 in   Clear
9:35 PM 32.0 °F - 14.0 °F 48% 30.27 in 10.0 mi Calm Calm - 0.00 in   Clear
9:55 PM 32.0 °F - 14.0 °F 48% 30.28 in 10.0 mi Calm Calm - 0.00 in   Clear
10:15 PM 33.8 °F 29.6 °F 12.2 °F 41% 30.28 in 10.0 mi SW 4.6 mph - 0.00 in   Clear
10:35 PM 32.0 °F - 14.0 °F 48% 30.28 in 10.0 mi Calm Calm - 0.00 in   Clear
10:55 PM 28.4 °F - 17.6 °F 64% 30.28 in 10.0 mi Calm Calm - 0.00 in   Clear
11:15 PM 28.4 °F - 14.0 °F 55% 30.28 in 10.0 mi Calm Calm - 0.00 in   Clear
11:35 PM 28.4 °F - 14.0 °F 55% 30.28 in 10.0 mi Calm Calm - 0.00 in   Clear
11:55 PM 28.4 °F - 17.6 °F 64% 30.28 in 10.0 mi Calm Calm - 0.00 in   Clear